CAS-7B

Last updated on Tue Aug 06 2019 00:02:03 GMT+0000 (Coordinated Universal Time)

1 44443U 19043A 19217.68179789 .10560506 89749-5 36947-2 0 9997 2 44443 42.7194 295.4156 0012393 4.8471 131.9425 16.24009227 1843

Satellite not in orbit

CAS-7B